This demonstration page uses our WeatherBlox Daily Observations layout. Learn more.

38.88101, -77.10428

Hourly Observations for February 24, 2020

Temp ( °F °C ) Dew Point ( °F °C ) Humidity (%) Winds ( mph kmh ) Pressure ( in mb ) Visibility ( mi km ) Precip ( " mm )
12:52 am 00:52 Mostly Cloudy 41 5 30 -1.1 65 65 NE 3 6 30.08 1019 10 16.0934 0 0
1:52 am 01:52 Mostly Cloudy 39 3.9 29 -1.7 67 67 Calm 30.07 1018 10 16.0934 0 0
2:52 am 02:52 Mostly Cloudy 38 3.3 26 -3.3 62 62 Calm 30.07 1018 10 16.0934 0 0
3:52 am 03:52 Clear 37 2.8 30 -1.1 76 76 Calm 30.06 1018 10 16.0934 0 0
4:52 am 04:52 Mostly Cloudy 37 2.8 28 -2.2 70 70 Calm 30.06 1018 10 16.0934 0 0
5:52 am 05:52 Mostly Cloudy 36 2.2 28 -2.2 73 73 NE 5 7 30.06 1018 10 16.0934 0 0
6:52 am 06:52 Mostly Cloudy 37 2.8 28 -2.2 70 70 ENE 3 6 30.06 1018 10 16.0934 0 0
7:52 am 07:52 Mostly Cloudy 37 2.8 27 -2.8 67 67 E 3 6 30.08 1019 10 16.0934 0 0
8:52 am 08:52 Cloudy 41 5 29 -1.7 62 62 NE 5 7 30.08 1019 10 16.0934 0 0
9:52 am 09:52 Cloudy 46 7.8 30 -1.1 54 54 SE 3 6 30.07 1018 10 16.0934 0 0
10:52 am 10:52 Cloudy 50 10 33 0.6 52 52 S 8 13 30.07 1018 10 16.0934 0 0
11:52 am 11:52 Cloudy 53 11.7 31 -0.6 43 43 S 6 9 30.04 1017 10 16.0934 0 0
12:52 pm 12:52 Cloudy 55 12.8 33 0.6 44 44 ENE 3 6 30.01 1016 10 16.0934 0 0
1:52 pm 13:52 Cloudy 58 14.4 29 -1.7 33 33 SE 3 6 29.99 1016 10 16.0934 0 0
2:52 pm 14:52 Cloudy 55 12.8 33 0.6 44 44 S 14 22 29.96 1015 10 16.0934 0 0
3:52 pm 15:52 Cloudy 59 15 32 0 36 36 SSW 14 22 29.95 1014 10 16.0934 0 0
4:52 pm 16:52 Cloudy 56 13.3 32 0 40 40 SSW 13 20 29.95 1014 10 16.0934 0 0
5:52 pm 17:52 Cloudy 51 10.6 37 2.8 59 59 S 8 13 29.95 1014 10 16.0934 0 0
6:52 pm 18:52 Cloudy 51 10.6 37 2.8 59 59 S 8 13 29.96 1015 10 16.0934 0 0
7:52 pm 19:52 Cloudy 50 10 38 3.3 63 63 S 10 17 29.96 1015 10 16.0934 0 0
8:52 pm 20:52 Cloudy 50 10 39 3.9 66 66 S 12 19 29.96 1015 10 16.0934 0 0
9:52 pm 21:52 Cloudy 48 8.9 40 4.4 74 74 S 10 17 29.95 1014 10 16.0934 0 0
10:52 pm 22:52 Cloudy 48 8.9 41 5 77 77 S 10 17 29.93 1014 10 16.0934 0 0
11:52 pm 23:52 Cloudy 47 8.3 43 6.1 86 86 S 8 13 29.91 1013 10 16.0934 0 0

Powered by AerisWeather